Погода в Поддубах

Россия / Калининградская область     54°36′15″N   22°04′42″E
темп.,
°C
ветер,
м/с
пор.,
м/с
влажн.,
%
обл.,
%
осадки,
мм/ч
давл.,
гПа
погр.,
м
4 июля, пн
пн423:00+15юв22910 0.0 101917
02:00+15юв22920 0.0 101821
05:00+15ююв22945 0.0 101830
08:00+20юв238330 0.2 1017248
11:00+22зюз22752 1.6 1016654
14:00+24юз2463100 2.0 10151286
17:00+23з24765 0.7 1015276
20:00+21ссз228226 0.8 101434
5 июля, вт
вт523:00+16зсз499442 0.3 1016197
02:00+14з389815 0.3 1017188
05:00+13з36972 0.0 1018125
08:00+17зсз468210 0.0 1018521
11:00+20зсз4660100 0.0 10191352
14:00+22зсз455520 0.0 10191750
17:00+21зсз355828 0.0 10181611
20:00+18ссв348349 0.1 101892
6 июля, ср
ср623:00+16ссз1281100 0.0 101942
02:00+13юз118684 0.0 101811
05:00+14ююз1289100 0.3 101826
08:00+17ю228297 0.3 1017371
11:00+20з576541 1.3 10171218
14:00+20з566515 1.6 10161182
17:00+18зсз577528 1.1 10161033
20:00+15зсз37830 1.4 1017259
7 июля, чт
чт723:00+11зюз34875 0.0 101758
02:00+10юз37900 0.0 1017123
05:00+9ююз38915 0.0 1017163
08:00+15юз477010 0.0 1017454
11:00+19юз465788 0.0 10161312
14:00+20зюз5755100 0.0 10161339
17:00+19ююз3666100 0.0 1015593
20:00+17ю3677100 0.0 1015140
8 июля, пт
пт823:00+16юз366590 0.0 1015215
02:00+12юз3489100 0.0 101671
05:00+12ююз2486100 0.0 101777
08:00+16зюз3582100 0.0 1017474
11:00+19зсз3477100 0.4 10171073
14:00+18з358789 0.9 1018469
17:00+19сз57888 2.9 1018735
20:00+16сз3887100 3.4 1019259